Погода в Илирнеях

Россия / Чукотский автономный округ     67°15′22″N   167°57′28″E
темп.,
°C
ветер,
м/с
пор.,
м/с
влажн.,
%
обл.,
%
осадки,
мм/ч
давл.,
гПа
погр.,
м
10 мая, пн
пн1000:00−18вюв119844 0.0 10229
03:00−21вюв119956 0.0 10239
06:00−18в119873 0.0 102321
09:00−12всв119270 0.0 1021101
12:00−8всв118312 0.0 1020207
15:00−5всв117810 0.0 1019270
18:00−5всв11845 0.0 1019152
21:00−12в11945 0.0 102110
11 мая, вт
вт1100:00−18юв119968 0.0 10239
03:00−20юв1110085 0.0 10249
06:00−17вюв009984 0.1 102421
09:00−11с009281 0.0 1022106
12:00−7с008451 0.0 1021204
15:00−4ссз118131 0.0 1020271
18:00−3зсз01845 0.0 1019185
21:00−9ю119471 0.0 102110
12 мая, ср
ср1200:00−15ююв119998 0.0 102210
03:00−15юз119990 0.0 102321
06:00−11сз1196100 0.1 102281
09:00−9зсз1190100 0.0 1021153
12:00−6сз1180100 0.0 1019234
15:00−3зсз1179100 0.0 1017267
18:00−2зюз1081100 0.0 1017231
21:00−4ююз1190100 0.0 101610
13 мая, чт
чт1300:00−7ю1193100 0.0 101611
03:00−9юз1196100 0.0 101610
06:00−6зсз119599 0.2 101563
09:00−4сз1191100 0.4 1014211
12:00−3сз1193100 0.8 1013253
15:00−2ссв119694 0.2 1013214
18:00−1всв119286 0.3 1014171
21:00−6ююв119560 0.0 101510
14 мая, пт
пт1400:00−10ююв119395 0.1 101711
03:00−12ю119787 0.0 101810
06:00−10ю009878 0.1 101822
09:00−4с019355 0.0 1017183
12:00−1в238767 0.0 1016524
15:000вюв338844 0.0 1015567
18:000в238464 0.0 1015216
21:00−4в129098 0.0 101711